Retour au catalogue

MARS EXPRESS

ActifScienceHCO
NORAD 27816·PAYLOAD·🇪🇺 EU

Lancé Jun 2, 2003 depuis Baikonur Cosmodrome

Loading…

TLE

PériméSource: Space-Track

Époque: Jun 2, 2003, 17:55 UTC

1 27816U 03022A   03153.74696760 -.00003884 +12281-4 +00000-0 0  9990
2 27816 051.7550 167.6480 0000010 000.0000 088.2820 16.35650938000006

Suivez MARS EXPRESS en temps réel avec AllMySat

Download on the App Store